This is the latest recevied weather packets stored in our database for station/object AD8BV. If no packets are shown the sender has not sent any weather packets the latest 10 day(s).
| Time | Temp. | Humidity | Pressure | Rain* | Wind** | Luminosity | Snow |
|---|---|---|---|---|---|---|---|
| 1777644045 | 6.11° C | 82% | 1015.2 hPa | 0 mm | - | 154 W/m² | - |
| 1777643743 | 6.67° C | 81% | 1015.7 hPa | 0 mm | - | 144 W/m² | - |
| 1777643440 | 6.67° C | 81% | 1015.4 hPa | 0 mm | - | 311 W/m² | - |
| 1777643137 | 6.11° C | 82% | 1015.4 hPa | 0 mm | - | 202 W/m² | - |
| 1777642833 | 6.11° C | 82% | 1015.3 hPa | 0 mm | - | 153 W/m² | - |
| 1777642530 | 6.11° C | 82% | 1015.3 hPa | 0 mm | - | 145 W/m² | - |
| 1777642227 | 5.56° C | 83% | 1015.4 hPa | 0 mm | - | 142 W/m² | - |
| 1777641924 | 5.56° C | 83% | 1015.3 hPa | 0 mm | - | 129 W/m² | - |
| 1777641620 | 5.56° C | 83% | 1015.3 hPa | 0 mm | - | 124 W/m² | - |
| 1777641314 | 5.56° C | 82% | 1015.1 hPa | 0 mm | - | 99 W/m² | - |
| 1777641010 | 5.56° C | 82% | 1015 hPa | 0 mm | - | 100 W/m² | - |
| 1777640707 | 5.56° C | 82% | 1015.1 hPa | 0 mm | - | 96 W/m² | - |
| 1777640404 | 5.56° C | 82% | 1015.3 hPa | 0 mm | - | 95 W/m² | - |
| 1777640101 | 5.56° C | 81% | 1015.2 hPa | 0 mm | - | 100 W/m² | - |
| 1777639797 | 5.56° C | 81% | 1015.4 hPa | 0 mm | - | 85 W/m² | - |
| 1777639495 | 5.56° C | 84% | 1015.4 hPa | 0 mm | - | 87 W/m² | - |
| 1777639191 | 5° C | 85% | 1015.4 hPa | 0 mm | - | 85 W/m² | - |
| 1777638888 | 5° C | 85% | 1015.3 hPa | 0 mm | - | 92 W/m² | - |
| 1777638583 | 5° C | 86% | 1015.2 hPa | 0 mm | - | 79 W/m² | - |
| 1777638280 | 5° C | 87% | 1015.4 hPa | 0 mm | - | 84 W/m² | - |
| 1777637976 | 5° C | 87% | 1015.3 hPa | 0 mm | - | 85 W/m² | - |
| 1777637673 | 5° C | 90% | 1015.2 hPa | 0 mm | - | 77 W/m² | - |
| 1777637370 | 5° C | 91% | 1015.3 hPa | 0 mm | - | 68 W/m² | - |
| 1777637066 | 4.44° C | 92% | 1015.3 hPa | 0 mm | - | 75 W/m² | - |
| 1777636762 | 4.44° C | 92% | 1015.3 hPa | 0 mm | - | 54 W/m² | - |
* Rain latest hour (hover to see other rain measurements)
** Current wind speed in m/s (hover to see current wind gust speed)